TimeEST,TemperatureF,Dew PointF,Humidity,Sea Level PressureIn,VisibilityMPH,Wind Direction,Wind SpeedMPH,Gust SpeedMPH,PrecipitationIn,Events,Conditions,WindDirDegrees,DateUTC
12:53 AM,34.0,16.0,48,30.37,10.0,ENE,3.5,-,N/A,,Overcast,60,2013-01-25 05:53:00
1:53 AM,37.9,18.0,45,30.36,10.0,East,8.1,-,N/A,,Overcast,80,2013-01-25 06:53:00
2:53 AM,37.0,15.1,41,30.36,10.0,East,9.2,20.7,N/A,,Overcast,100,2013-01-25 07:53:00
3:53 AM,36.0,12.9,39,30.34,10.0,ESE,10.4,26.5,N/A,,Overcast,110,2013-01-25 08:53:00
4:53 AM,35.1,12.0,39,30.34,10.0,East,10.4,16.1,N/A,,Overcast,100,2013-01-25 09:53:00
5:53 AM,34.0,10.9,38,30.34,10.0,SE,10.4,23.0,N/A,,Overcast,130,2013-01-25 10:53:00
6:53 AM,33.1,14.0,46,30.34,10.0,Variable,5.8,16.1,0.00,,Overcast,0,2013-01-25 11:53:00
7:53 AM,33.1,12.9,43,30.33,10.0,ESE,8.1,16.1,0.00,,Overcast,120,2013-01-25 12:53:00
8:53 AM,33.1,14.0,46,30.32,10.0,ESE,8.1,19.6,N/A,,Overcast,120,2013-01-25 13:53:00
9:53 AM,33.1,15.1,48,30.31,10.0,ESE,6.9,17.3,0.00,,Overcast,110,2013-01-25 14:53:00
10:53 AM,34.0,16.0,48,30.30,10.0,ESE,5.8,18.4,N/A,,Overcast,120,2013-01-25 15:53:00
11:53 AM,35.1,17.1,48,30.27,10.0,ESE,9.2,-,N/A,,Overcast,110,2013-01-25 16:53:00
12:53 PM,37.0,19.0,48,30.22,10.0,SE,10.4,-,N/A,,Overcast,140,2013-01-25 17:53:00
1:17 PM,37.4,19.4,48,30.19,10.0,ESE,9.2,-,N/A,,Overcast,120,2013-01-25 18:17:00
1:53 PM,39.0,23.0,53,30.22,8.0,NNE,5.8,-,0.00,Rain,Light Rain,30,2013-01-25 18:53:00
2:53 PM,36.0,24.1,62,30.18,10.0,ENE,6.9,-,0.00,,Overcast,60,2013-01-25 19:53:00
3:53 PM,37.0,24.1,59,30.16,10.0,Variable,4.6,-,N/A,,Overcast,0,2013-01-25 20:53:00
4:53 PM,37.9,24.1,57,30.14,10.0,East,5.8,-,N/A,,Overcast,90,2013-01-25 21:53:00
5:53 PM,37.9,25.0,60,30.14,10.0,ENE,4.6,-,N/A,,Overcast,60,2013-01-25 22:53:00
6:48 PM,37.4,24.8,60,30.16,10.0,ENE,6.9,-,N/A,,Overcast,70,2013-01-25 23:48:00
6:53 PM,37.0,25.0,62,30.16,10.0,ENE,5.8,-,N/A,,Overcast,70,2013-01-25 23:53:00
7:53 PM,36.0,28.9,76,30.17,10.0,ENE,4.6,-,0.00,,Overcast,70,2013-01-26 00:53:00
8:53 PM,34.0,30.9,89,30.18,8.0,Calm,Calm,-,0.00,,Overcast,0,2013-01-26 01:53:00
9:53 PM,34.0,32.0,92,30.18,6.0,SE,3.5,-,0.00,,Overcast,140,2013-01-26 02:53:00
10:53 PM,34.0,33.1,96,30.19,5.0,Calm,Calm,-,0.01,,Overcast,0,2013-01-26 03:53:00
11:53 PM,35.1,34.0,96,30.19,4.0,Calm,Calm,-,0.00,Rain,Light Rain,0,2013-01-26 04:53:00